Orbital Elements at Epoch 2459000.5 (2020-May-31.0) TDB
Reference: JPL 16 (heliocentric ecliptic J2000)
Element | Value | Uncertainty (1-sigma) | Units |
e | .114771351406574 | 1.0446e-07 | |
a | 3.083513193961581 | 4.2424e-08 | au |
q | 2.729614217610609 | 3.3131e-07 | au |
i | 10.3686949807417 | 1.0761e-05 | deg |
node | 25.70710103217683 | 3.5509e-05 | deg |
peri | 348.9178409604471 | 4.3682e-05 | deg |
M | 167.918209419283 | 2.539e-05 | deg |
tp | 2458078.008363962890 (2017-Nov-20.50836396) | 0.00013349 | TDB |
period | 1977.730647092185 5.41 | 4.0815e-05 1.117e-07 | d yr |
n | .1820268096311802 | 3.7566e-09 | deg/d |
Q | 3.437412170312554 | 4.7293e-08 | au |
|
| | Orbit Determination Parameters
Additional Information
|